Time,TemperatureF,DewpointF,PressureIn,WindDirection,WindDirectionDegrees,WindSpeedMPH,WindSpeedGustMPH,Humidity,HourlyPrecipIn,Conditions,Clouds,dailyrainin,SolarRadiationWatts/m^2,SoftwareType,DateUTC
2013-07-07 00:01:00,78.3,75.1,30.11,ESE,113,3.0,7.0,90,0.00,,,0.00,0,Wunderground v.1.15,2013-07-07 04:01:00,
2013-07-07 00:02:00,78.2,75.0,30.11,ESE,113,3.0,7.0,90,0.00,,,0.00,0,Wunderground v.1.15,2013-07-07 04:02:00,
2013-07-07 00:04:00,78.2,75.0,30.10,ESE,113,3.0,7.0,90,0.00,,,0.00,0,Wunderground v.1.15,2013-07-07 04:04:00,
2013-07-07 00:05:00,78.2,75.0,30.10,ESE,113,3.0,7.0,90,0.00,,,0.00,0,Wunderground v.1.15,2013-07-07 04:05:00,
2013-07-07 00:07:00,78.1,74.9,30.10,ESE,113,3.0,7.0,90,0.00,,,0.00,0,Wunderground v.1.15,2013-07-07 04:07:00,
2013-07-07 00:12:00,78.0,74.8,30.10,ESE,113,3.0,7.0,90,0.00,,,0.00,0,Wunderground v.1.15,2013-07-07 04:12:00,
2013-07-07 00:17:00,77.9,74.7,30.10,ESE,113,3.0,7.0,90,0.00,,,0.00,0,Wunderground v.1.15,2013-07-07 04:17:00,
2013-07-07 00:22:00,77.9,74.7,30.10,ESE,113,3.0,7.0,90,0.00,,,0.00,0,Wunderground v.1.15,2013-07-07 04:22:00,
2013-07-07 00:28:00,77.8,74.6,30.10,ESE,111,2.0,7.0,90,0.00,,,0.00,0,Wunderground v.1.15,2013-07-07 04:28:00,
2013-07-07 00:33:00,77.8,74.6,30.10,ESE,116,2.0,7.0,90,0.00,,,0.00,0,Wunderground v.1.15,2013-07-07 04:33:00,
2013-07-07 00:38:00,77.7,74.5,30.10,ESE,116,3.0,7.0,90,0.00,,,0.00,0,Wunderground v.1.15,2013-07-07 04:38:00,
2013-07-07 00:44:00,77.7,74.9,30.09,ESE,121,4.0,7.0,91,0.00,,,0.00,0,Wunderground v.1.15,2013-07-07 04:44:00,
2013-07-07 00:49:00,77.7,74.9,30.09,ESE,115,4.0,7.0,91,0.00,,,0.00,0,Wunderground v.1.15,2013-07-07 04:49:00,
2013-07-07 00:54:00,77.6,74.8,30.09,SE,128,4.0,7.0,91,0.00,,,0.00,0,Wunderground v.1.15,2013-07-07 04:54:00,
2013-07-07 00:59:00,77.6,74.8,30.09,ESE,120,4.0,7.0,91,0.00,,,0.00,0,Wunderground v.1.15,2013-07-07 04:59:00,
2013-07-07 01:05:00,77.5,74.7,30.10,ESE,120,3.0,7.0,91,0.00,,,0.00,0,Wunderground v.1.15,2013-07-07 05:05:00,
2013-07-07 01:10:00,77.5,74.7,30.10,ESE,121,2.0,7.0,91,0.00,,,0.00,0,Wunderground v.1.15,2013-07-07 05:10:00,
2013-07-07 01:15:00,77.5,74.7,30.09,ESE,118,3.0,7.0,91,0.00,,,0.00,0,Wunderground v.1.15,2013-07-07 05:15:00,
2013-07-07 01:21:00,77.5,74.7,30.09,ESE,119,3.0,7.0,91,0.00,,,0.00,0,Wunderground v.1.15,2013-07-07 05:21:00,
2013-07-07 01:26:00,77.4,74.6,30.09,ESE,119,3.0,7.0,91,0.00,,,0.00,0,Wunderground v.1.15,2013-07-07 05:26:00,
2013-07-07 01:31:00,77.3,74.5,30.10,ESE,119,4.0,5.0,91,0.00,,,0.00,0,Wunderground v.1.15,2013-07-07 05:31:00,
2013-07-07 01:37:00,77.3,74.5,30.09,ESE,113,4.0,7.0,91,0.00,,,0.00,0,Wunderground v.1.15,2013-07-07 05:37:00,
2013-07-07 01:42:00,77.3,74.5,30.09,ESE,104,3.0,3.0,91,0.00,,,0.00,0,Wunderground v.1.15,2013-07-07 05:42:00,
2013-07-07 01:47:00,77.3,74.5,30.09,ESE,105,2.0,4.0,91,0.00,,,0.00,0,Wunderground v.1.15,2013-07-07 05:47:00,
2013-07-07 01:52:00,77.3,74.5,30.09,ESE,112,3.0,3.0,91,0.00,,,0.00,0,Wunderground v.1.15,2013-07-07 05:52:00,
2013-07-07 01:58:00,77.3,74.5,30.08,ESE,113,2.0,3.0,91,0.00,,,0.00,0,Wunderground v.1.15,2013-07-07 05:58:00,
2013-07-07 02:04:00,77.3,74.5,30.08,ESE,113,1.0,9.0,91,0.00,,,0.00,0,Wunderground v.1.15,2013-07-07 06:04:00,
2013-07-07 02:09:00,77.1,74.3,30.08,ESE,113,1.0,9.0,91,0.00,,,0.00,0,Wunderground v.1.15,2013-07-07 06:09:00,
2013-07-07 02:14:00,77.1,74.3,30.08,ESE,113,2.0,9.0,91,0.00,,,0.00,0,Wunderground v.1.15,2013-07-07 06:14:00,
2013-07-07 02:19:00,77.1,74.3,30.08,ESE,113,2.0,9.0,91,0.00,,,0.00,0,Wunderground v.1.15,2013-07-07 06:19:00,
2013-07-07 02:25:00,77.1,74.3,30.08,ESE,113,2.0,9.0,91,0.00,,,0.00,0,Wunderground v.1.15,2013-07-07 06:25:00,
2013-07-07 02:30:00,77.0,74.2,30.08,ESE,113,1.0,9.0,91,0.00,,,0.00,0,Wunderground v.1.15,2013-07-07 06:30:00,
2013-07-07 02:35:00,76.9,74.4,30.08,ESE,113,1.0,9.0,92,0.00,,,0.00,0,Wunderground v.1.15,2013-07-07 06:35:00,
2013-07-07 02:41:00,76.8,74.3,30.08,ESE,113,1.0,1.0,92,0.00,,,0.00,0,Wunderground v.1.15,2013-07-07 06:41:00,
2013-07-07 02:46:00,76.8,74.3,30.07,ESE,113,2.0,4.0,92,0.00,,,0.00,0,Wunderground v.1.15,2013-07-07 06:46:00,
2013-07-07 02:51:00,76.7,74.2,30.07,ESE,113,2.0,3.0,92,0.00,,,0.00,0,Wunderground v.1.15,2013-07-07 06:51:00,
2013-07-07 02:56:00,76.6,74.1,30.08,ESE,113,2.0,3.0,92,0.00,,,0.00,0,Wunderground v.1.15,2013-07-07 06:56:00,
2013-07-07 03:02:00,76.5,74.0,30.07,ESE,113,1.0,7.0,92,0.00,,,0.00,0,Wunderground v.1.15,2013-07-07 07:02:00,
2013-07-07 03:07:00,76.4,73.9,30.07,ESE,113,1.0,7.0,92,0.00,,,0.00,0,Wunderground v.1.15,2013-07-07 07:07:00,
2013-07-07 03:12:00,76.4,74.2,30.07,ESE,113,2.0,7.0,93,0.00,,,0.00,0,Wunderground v.1.15,2013-07-07 07:12:00,
2013-07-07 03:18:00,76.4,74.2,30.07,ESE,113,2.0,7.0,93,0.00,,,0.00,0,Wunderground v.1.15,2013-07-07 07:18:00,
2013-07-07 03:23:00,76.4,74.2,30.07,ESE,113,1.0,7.0,93,0.00,,,0.00,0,Wunderground v.1.15,2013-07-07 07:23:00,
2013-07-07 03:28:00,76.4,74.2,30.07,ESE,114,2.0,7.0,93,0.00,,,0.00,0,Wunderground v.1.15,2013-07-07 07:28:00,
2013-07-07 03:34:00,76.4,74.2,30.07,East,95,3.0,7.0,93,0.00,,,0.00,0,Wunderground v.1.15,2013-07-07 07:34:00,
2013-07-07 03:40:00,76.3,74.1,30.07,ESE,116,4.0,4.0,93,0.00,,,0.00,0,Wunderground v.1.15,2013-07-07 07:40:00,
2013-07-07 03:45:00,76.3,74.1,30.07,ESE,115,3.0,4.0,93,0.00,,,0.00,0,Wunderground v.1.15,2013-07-07 07:45:00,
2013-07-07 03:51:00,76.2,74.0,30.07,ESE,115,3.0,3.0,93,0.00,,,0.00,0,Wunderground v.1.15,2013-07-07 07:51:00,
2013-07-07 03:56:00,76.2,74.0,30.07,ESE,115,2.0,3.0,93,0.00,,,0.00,0,Wunderground v.1.15,2013-07-07 07:56:00,
2013-07-07 04:01:00,76.2,74.0,30.07,ESE,115,1.0,8.0,93,0.00,,,0.00,0,Wunderground v.1.15,2013-07-07 08:01:00,
2013-07-07 04:06:00,76.1,73.9,30.06,ESE,115,1.0,8.0,93,0.00,,,0.00,0,Wunderground v.1.15,2013-07-07 08:06:00,
2013-07-07 04:12:00,76.0,73.8,30.06,ESE,115,1.0,8.0,93,0.00,,,0.00,0,Wunderground v.1.15,2013-07-07 08:12:00,
2013-07-07 04:17:00,76.0,73.8,30.07,ESE,115,0.0,8.0,93,0.00,,,0.00,0,Wunderground v.1.15,2013-07-07 08:17:00,
2013-07-07 04:23:00,75.9,73.7,30.07,ESE,115,0.0,8.0,93,0.00,,,0.00,0,Wunderground v.1.15,2013-07-07 08:23:00,
2013-07-07 04:29:00,75.8,73.6,30.07,ESE,115,0.0,8.0,93,0.00,,,0.00,0,Wunderground v.1.15,2013-07-07 08:29:00,
2013-07-07 04:34:00,75.7,73.5,30.07,ESE,115,0.0,8.0,93,0.00,,,0.00,0,Wunderground v.1.15,2013-07-07 08:34:00,
2013-07-07 04:40:00,75.6,73.4,30.07,ESE,115,0.0,0.0,93,0.00,,,0.00,0,Wunderground v.1.15,2013-07-07 08:40:00,
2013-07-07 04:46:00,75.5,73.3,30.07,ESE,115,0.0,3.0,93,0.00,,,0.00,0,Wunderground v.1.15,2013-07-07 08:46:00,
2013-07-07 04:51:00,75.4,73.2,30.07,ESE,115,1.0,1.0,93,0.00,,,0.00,0,Wunderground v.1.15,2013-07-07 08:51:00,
2013-07-07 04:56:00,75.3,73.1,30.06,ESE,115,0.0,1.0,93,0.00,,,0.00,0,Wunderground v.1.15,2013-07-07 08:56:00,
2013-07-07 05:02:00,75.2,73.0,30.06,ESE,115,0.0,7.0,93,0.00,,,0.00,0,Wunderground v.1.15,2013-07-07 09:02:00,
2013-07-07 05:07:00,75.0,72.8,30.06,ESE,115,0.0,7.0,93,0.00,,,0.00,0,Wunderground v.1.15,2013-07-07 09:07:00,
2013-07-07 05:12:00,74.9,73.1,30.06,ESE,115,0.0,7.0,94,0.00,,,0.00,0,Wunderground v.1.15,2013-07-07 09:12:00,
2013-07-07 05:18:00,74.8,73.0,30.06,ESE,115,0.0,7.0,94,0.00,,,0.00,0,Wunderground v.1.15,2013-07-07 09:18:00,
2013-07-07 05:23:00,74.7,72.9,30.06,ESE,115,0.0,7.0,94,0.00,,,0.00,0,Wunderground v.1.15,2013-07-07 09:23:00,
2013-07-07 05:28:00,74.6,72.8,30.06,ESE,115,0.0,7.0,94,0.00,,,0.00,0,Wunderground v.1.15,2013-07-07 09:28:00,
2013-07-07 05:33:00,74.5,72.7,30.06,ESE,115,0.0,7.0,94,0.00,,,0.00,0,Wunderground v.1.15,2013-07-07 09:33:00,
2013-07-07 05:39:00,74.4,72.6,30.06,ESE,115,0.0,7.0,94,0.00,,,0.00,0,Wunderground v.1.15,2013-07-07 09:39:00,
2013-07-07 05:44:00,74.4,72.6,30.06,ESE,115,0.0,0.0,94,0.00,,,0.00,0,Wunderground v.1.15,2013-07-07 09:44:00,
2013-07-07 05:49:00,74.3,72.5,30.07,ESE,118,0.0,0.0,94,0.00,,,0.00,0,Wunderground v.1.15,2013-07-07 09:49:00,
2013-07-07 05:55:00,74.2,72.4,30.07,ESE,118,0.0,0.0,94,0.00,,,0.00,0,Wunderground v.1.15,2013-07-07 09:55:00,
2013-07-07 06:00:00,74.2,72.7,30.07,ESE,118,0.0,0.0,95,0.00,,,0.00,0,Wunderground v.1.15,2013-07-07 10:00:00,
2013-07-07 06:05:00,74.2,72.7,30.07,ESE,118,0.0,3.0,95,0.00,,,0.00,0,Wunderground v.1.15,2013-07-07 10:05:00,
2013-07-07 06:10:00,74.2,72.7,30.07,ESE,118,0.0,3.0,95,0.00,,,0.00,0,Wunderground v.1.15,2013-07-07 10:10:00,
2013-07-07 06:16:00,74.3,72.8,30.07,ESE,118,0.0,3.0,95,0.00,,,0.00,0,Wunderground v.1.15,2013-07-07 10:16:00,
2013-07-07 06:21:00,74.3,72.8,30.07,ESE,118,0.0,3.0,95,0.00,,,0.00,0,Wunderground v.1.15,2013-07-07 10:21:00,
2013-07-07 06:26:00,74.3,72.8,30.07,ESE,118,1.0,4.0,95,0.00,,,0.00,0,Wunderground v.1.15,2013-07-07 10:26:00,
2013-07-07 06:32:00,74.4,72.9,30.07,ESE,118,1.0,3.0,95,0.00,,,0.00,0,Wunderground v.1.15,2013-07-07 10:32:00,
2013-07-07 06:37:00,74.5,73.0,30.07,ESE,118,0.0,3.0,95,0.00,,,0.00,5,Wunderground v.1.15,2013-07-07 10:37:00,
2013-07-07 06:42:00,74.6,73.4,30.07,ESE,118,1.0,3.0,96,0.00,,,0.00,7,Wunderground v.1.15,2013-07-07 10:42:00,
2013-07-07 06:48:00,74.6,73.1,30.07,ESE,118,2.0,3.0,95,0.00,,,0.00,12,Wunderground v.1.15,2013-07-07 10:48:00,
2013-07-07 06:54:00,74.7,73.5,30.07,ESE,118,2.0,3.0,96,0.00,,,0.00,16,Wunderground v.1.15,2013-07-07 10:54:00,
2013-07-07 06:59:00,74.8,73.6,30.07,ESE,118,2.0,4.0,96,0.00,,,0.00,19,Wunderground v.1.15,2013-07-07 10:59:00,
2013-07-07 07:04:00,74.8,73.6,30.08,ESE,118,2.0,4.0,96,0.00,,,0.00,21,Wunderground v.1.15,2013-07-07 11:04:00,
2013-07-07 07:10:00,74.9,73.7,30.08,ESE,118,1.0,1.0,96,0.00,,,0.00,30,Wunderground v.1.15,2013-07-07 11:10:00,
2013-07-07 07:15:00,75.0,73.8,30.08,ESE,118,0.0,4.0,96,0.00,,,0.00,30,Wunderground v.1.15,2013-07-07 11:15:00,
2013-07-07 07:20:00,75.1,73.9,30.08,ESE,118,0.0,4.0,96,0.00,,,0.00,32,Wunderground v.1.15,2013-07-07 11:20:00,
2013-07-07 07:26:00,75.1,73.9,30.08,ESE,118,0.0,4.0,96,0.00,,,0.00,35,Wunderground v.1.15,2013-07-07 11:26:00,
2013-07-07 07:31:00,75.3,74.1,30.08,ESE,118,1.0,4.0,96,0.00,,,0.00,40,Wunderground v.1.15,2013-07-07 11:31:00,
2013-07-07 07:36:00,75.5,74.3,30.08,ESE,118,1.0,4.0,96,0.00,,,0.00,39,Wunderground v.1.15,2013-07-07 11:36:00,
2013-07-07 07:41:00,75.7,74.5,30.08,ESE,118,1.0,2.0,96,0.00,,,0.00,39,Wunderground v.1.15,2013-07-07 11:41:00,
2013-07-07 07:47:00,76.0,74.8,30.08,ESE,118,1.0,2.0,96,0.00,,,0.00,40,Wunderground v.1.15,2013-07-07 11:47:00,
2013-07-07 07:52:00,76.2,75.0,30.09,ESE,118,1.0,1.0,96,0.00,,,0.00,44,Wunderground v.1.15,2013-07-07 11:52:00,
2013-07-07 07:57:00,76.5,75.3,30.09,ESE,118,1.0,1.0,96,0.00,,,0.00,46,Wunderground v.1.15,2013-07-07 11:57:00,
2013-07-07 08:03:00,76.8,75.3,30.09,ESE,118,1.0,4.0,95,0.00,,,0.00,70,Wunderground v.1.15,2013-07-07 12:03:00,
2013-07-07 08:08:00,77.3,75.8,30.09,ESE,118,2.0,4.0,95,0.00,,,0.00,211,Wunderground v.1.15,2013-07-07 12:08:00,
2013-07-07 08:13:00,77.7,76.2,30.09,ESE,118,2.0,4.0,95,0.00,,,0.00,237,Wunderground v.1.15,2013-07-07 12:13:00,
2013-07-07 08:18:00,78.3,76.4,30.09,ESE,113,3.0,5.0,94,0.00,,,0.00,251,Wunderground v.1.15,2013-07-07 12:18:00,
2013-07-07 08:24:00,78.9,76.4,30.09,SE,128,5.0,7.0,92,0.00,,,0.00,271,Wunderground v.1.15,2013-07-07 12:24:00,
2013-07-07 08:29:00,79.5,76.6,30.09,SE,128,5.0,7.0,91,0.00,,,0.00,288,Wunderground v.1.15,2013-07-07 12:29:00,
2013-07-07 08:34:00,79.9,76.7,30.09,ESE,119,4.0,5.0,90,0.00,,,0.00,306,Wunderground v.1.15,2013-07-07 12:34:00,
2013-07-07 08:40:00,80.6,77.1,30.10,ESE,119,4.0,6.0,89,0.00,,,0.00,327,Wunderground v.1.15,2013-07-07 12:40:00,
2013-07-07 08:45:00,81.0,76.8,30.10,ESE,107,5.0,8.0,87,0.00,,,0.00,345,Wunderground v.1.15,2013-07-07 12:45:00,
2013-07-07 08:50:00,81.4,76.8,30.10,SE,128,5.0,6.0,86,0.00,,,0.00,364,Wunderground v.1.15,2013-07-07 12:50:00,
2013-07-07 08:56:00,81.7,76.7,30.10,SE,128,6.0,9.0,85,0.00,,,0.00,394,Wunderground v.1.15,2013-07-07 12:56:00,
2013-07-07 09:02:00,82.0,77.0,30.10,SE,138,7.0,10.0,85,0.00,,,0.00,417,Wunderground v.1.15,2013-07-07 13:02:00,
2013-07-07 09:07:00,82.2,76.9,30.10,SE,133,8.0,10.0,84,0.00,,,0.00,381,Wunderground v.1.15,2013-07-07 13:07:00,
2013-07-07 09:12:00,82.2,76.5,30.10,SE,128,8.0,9.0,83,0.00,,,0.00,508,Wunderground v.1.15,2013-07-07 13:12:00,
2013-07-07 09:18:00,82.4,77.1,30.10,SE,128,8.0,10.0,84,0.00,,,0.00,512,Wunderground v.1.15,2013-07-07 13:18:00,
2013-07-07 09:23:00,82.6,76.5,30.10,SSE,148,9.0,11.0,82,0.00,,,0.00,519,Wunderground v.1.15,2013-07-07 13:23:00,
2013-07-07 09:28:00,82.7,76.6,30.10,SE,128,8.0,11.0,82,0.00,,,0.00,534,Wunderground v.1.15,2013-07-07 13:28:00,
2013-07-07 09:34:00,83.1,76.7,30.10,ESE,113,7.0,13.0,81,0.00,,,0.00,568,Wunderground v.1.15,2013-07-07 13:34:00,
2013-07-07 09:39:00,83.3,76.9,30.11,East,86,7.0,13.0,81,0.00,,,0.00,584,Wunderground v.1.15,2013-07-07 13:39:00,
2013-07-07 09:44:00,83.6,76.8,30.11,SE,138,8.0,11.0,80,0.00,,,0.00,661,Wunderground v.1.15,2013-07-07 13:44:00,
2013-07-07 09:49:00,83.7,77.2,30.11,ESE,115,8.0,11.0,81,0.00,,,0.00,666,Wunderground v.1.15,2013-07-07 13:49:00,
2013-07-07 09:55:00,84.3,77.1,30.11,East,97,6.0,7.0,79,0.00,,,0.00,696,Wunderground v.1.15,2013-07-07 13:55:00,
2013-07-07 10:00:00,84.8,77.2,30.11,ESE,121,6.0,11.0,78,0.00,,,0.00,712,Wunderground v.1.15,2013-07-07 14:00:00,
2013-07-07 10:05:00,85.0,77.4,30.11,East,84,7.0,13.0,78,0.00,,,0.00,726,Wunderground v.1.15,2013-07-07 14:05:00,
2013-07-07 10:11:00,85.3,77.7,30.11,SSE,160,6.0,13.0,78,0.00,,,0.00,786,Wunderground v.1.15,2013-07-07 14:11:00,
2013-07-07 10:16:00,85.5,77.1,30.11,SE,138,6.0,13.0,76,0.00,,,0.00,237,Wunderground v.1.15,2013-07-07 14:16:00,
2013-07-07 10:21:00,85.0,77.4,30.11,SSE,147,7.0,13.0,78,0.00,,,0.00,271,Wunderground v.1.15,2013-07-07 14:21:00,
2013-07-07 10:27:00,84.6,76.6,30.11,SE,128,8.0,13.0,77,0.00,,,0.00,870,Wunderground v.1.15,2013-07-07 14:27:00,
2013-07-07 10:32:00,84.6,76.6,30.11,SE,128,8.0,13.0,77,0.00,,,0.00,821,Wunderground v.1.15,2013-07-07 14:32:00,
2013-07-07 10:37:00,85.2,76.8,30.11,SE,138,7.0,13.0,76,0.00,,,0.00,687,Wunderground v.1.15,2013-07-07 14:37:00,
2013-07-07 10:42:00,85.2,76.8,30.11,SE,128,7.0,11.0,76,0.00,,,0.00,687,Wunderground v.1.15,2013-07-07 14:42:00,
2013-07-07 10:48:00,85.4,76.6,30.11,ESE,113,8.0,11.0,75,0.00,,,0.00,853,Wunderground v.1.15,2013-07-07 14:48:00,
2013-07-07 10:53:00,86.1,76.8,30.11,ESE,108,7.0,12.0,74,0.00,,,0.00,863,Wunderground v.1.15,2013-07-07 14:53:00,
2013-07-07 10:59:00,86.8,76.7,30.11,SE,128,8.0,12.0,72,0.00,,,0.00,860,Wunderground v.1.15,2013-07-07 14:59:00,
2013-07-07 11:04:00,87.0,76.0,30.11,East,94,7.0,14.0,70,0.00,,,0.00,870,Wunderground v.1.15,2013-07-07 15:04:00,
2013-07-07 11:09:00,87.3,75.9,30.11,ESE,109,8.0,14.0,69,0.00,,,0.00,912,Wunderground v.1.15,2013-07-07 15:09:00,
2013-07-07 11:15:00,87.5,76.1,30.11,East,95,8.0,14.0,69,0.00,,,0.00,912,Wunderground v.1.15,2013-07-07 15:15:00,
2013-07-07 11:20:00,87.3,75.9,30.11,East,82,8.0,8.0,69,0.00,,,0.00,960,Wunderground v.1.15,2013-07-07 15:20:00,
2013-07-07 11:25:00,87.5,76.1,30.11,ESE,114,8.0,14.0,69,0.00,,,0.00,962,Wunderground v.1.15,2013-07-07 15:25:00,
2013-07-07 11:31:00,87.6,77.0,30.11,ESE,107,6.0,14.0,71,0.00,,,0.00,965,Wunderground v.1.15,2013-07-07 15:31:00,
2013-07-07 11:37:00,87.9,76.5,30.11,ENE,76,6.0,14.0,69,0.00,,,0.00,970,Wunderground v.1.15,2013-07-07 15:37:00,
2013-07-07 11:42:00,88.0,76.1,30.11,ESE,119,7.0,8.0,68,0.00,,,0.00,478,Wunderground v.1.15,2013-07-07 15:42:00,
2013-07-07 11:47:00,87.5,76.1,30.11,SE,128,8.0,10.0,69,0.00,,,0.00,1041,Wunderground v.1.15,2013-07-07 15:47:00,
2013-07-07 11:53:00,87.6,76.6,30.11,East,98,7.0,11.0,70,0.00,,,0.00,1041,Wunderground v.1.15,2013-07-07 15:53:00,
2013-07-07 11:58:00,88.0,76.1,30.11,SE,128,8.0,13.0,68,0.00,,,0.00,1013,Wunderground v.1.15,2013-07-07 15:58:00,
2013-07-07 12:03:00,88.0,76.1,30.11,SE,133,9.0,14.0,68,0.00,,,0.00,1023,Wunderground v.1.15,2013-07-07 16:03:00,
2013-07-07 12:09:00,88.4,76.0,30.10,ESE,118,8.0,14.0,67,0.00,,,0.00,246,Wunderground v.1.15,2013-07-07 16:09:00,
2013-07-07 12:14:00,88.2,75.4,30.10,ESE,121,9.0,14.0,66,0.00,,,0.00,979,Wunderground v.1.15,2013-07-07 16:14:00,
2013-07-07 12:19:00,88.1,75.8,30.10,ESE,119,10.0,14.0,67,0.00,,,0.00,991,Wunderground v.1.15,2013-07-07 16:19:00,
2013-07-07 12:25:00,88.0,75.2,30.10,SSE,153,9.0,14.0,66,0.00,,,0.00,979,Wunderground v.1.15,2013-07-07 16:25:00,
2013-07-07 12:30:00,87.6,75.7,30.10,SE,128,10.0,10.0,68,0.00,,,0.00,1060,Wunderground v.1.15,2013-07-07 16:30:00,
2013-07-07 12:35:00,87.9,75.6,30.10,SSE,155,11.0,17.0,67,0.00,,,0.00,1034,Wunderground v.1.15,2013-07-07 16:35:00,
2013-07-07 12:41:00,87.9,75.1,30.10,SE,138,11.0,11.0,66,0.00,,,0.00,988,Wunderground v.1.15,2013-07-07 16:41:00,
2013-07-07 12:46:00,88.0,75.7,30.10,East,95,11.0,13.0,67,0.00,,,0.00,986,Wunderground v.1.15,2013-07-07 16:46:00,
2013-07-07 12:51:00,88.5,75.7,30.10,SE,128,9.0,9.0,66,0.00,,,0.00,1000,Wunderground v.1.15,2013-07-07 16:51:00,
2013-07-07 12:57:00,88.5,75.2,30.10,SE,138,10.0,15.0,65,0.00,,,0.00,1013,Wunderground v.1.15,2013-07-07 16:57:00,
2013-07-07 13:02:00,88.1,76.6,30.09,ESE,116,11.0,19.0,69,0.00,,,0.00,1065,Wunderground v.1.15,2013-07-07 17:02:00,
2013-07-07 13:07:00,88.7,75.4,30.09,SE,124,10.0,19.0,65,0.00,,,0.00,1086,Wunderground v.1.15,2013-07-07 17:07:00,
2013-07-07 13:13:00,89.1,76.3,30.09,ESE,119,9.0,19.0,66,0.00,,,0.00,1102,Wunderground v.1.15,2013-07-07 17:13:00,
2013-07-07 13:19:00,88.7,75.4,30.09,SE,143,11.0,19.0,65,0.00,,,0.00,1027,Wunderground v.1.15,2013-07-07 17:19:00,
2013-07-07 13:24:00,88.7,75.9,30.09,ESE,112,12.0,19.0,66,0.00,,,0.00,1035,Wunderground v.1.15,2013-07-07 17:24:00,
2013-07-07 13:29:00,88.6,76.2,30.08,ESE,120,11.0,19.0,67,0.00,,,0.00,998,Wunderground v.1.15,2013-07-07 17:29:00,
2013-07-07 13:35:00,88.7,75.4,30.08,ENE,71,11.0,19.0,65,0.00,,,0.00,1039,Wunderground v.1.15,2013-07-07 17:35:00,
2013-07-07 13:40:00,88.9,75.1,30.08,ESE,104,10.0,10.0,64,0.00,,,0.00,1005,Wunderground v.1.15,2013-07-07 17:40:00,
2013-07-07 13:45:00,89.2,75.0,30.08,SE,138,9.0,12.0,63,0.00,,,0.00,1004,Wunderground v.1.15,2013-07-07 17:45:00,
2013-07-07 13:51:00,89.4,74.7,30.08,ESE,102,10.0,17.0,62,0.00,,,0.00,990,Wunderground v.1.15,2013-07-07 17:51:00,
2013-07-07 13:56:00,89.5,74.8,30.08,ESE,113,11.0,17.0,62,0.00,,,0.00,986,Wunderground v.1.15,2013-07-07 17:56:00,
2013-07-07 14:01:00,89.4,74.7,30.08,SE,138,10.0,15.0,62,0.00,,,0.00,986,Wunderground v.1.15,2013-07-07 18:01:00,
2013-07-07 14:06:00,89.1,73.4,30.08,ESE,115,10.0,19.0,60,0.00,,,0.00,983,Wunderground v.1.15,2013-07-07 18:06:00,
2013-07-07 14:12:00,89.2,74.0,30.07,SE,128,9.0,19.0,61,0.00,,,0.00,979,Wunderground v.1.15,2013-07-07 18:12:00,
2013-07-07 14:17:00,89.3,73.1,30.07,SSE,154,12.0,19.0,59,0.00,,,0.00,977,Wunderground v.1.15,2013-07-07 18:17:00,
2013-07-07 14:22:00,89.0,73.8,30.07,SE,133,13.0,19.0,61,0.00,,,0.00,974,Wunderground v.1.15,2013-07-07 18:22:00,
2013-07-07 14:28:00,88.9,71.7,30.08,SE,128,13.0,19.0,57,0.00,,,0.00,970,Wunderground v.1.15,2013-07-07 18:28:00,
2013-07-07 14:33:00,88.9,73.2,30.08,SE,144,13.0,19.0,60,0.00,,,0.00,962,Wunderground v.1.15,2013-07-07 18:33:00,
2013-07-07 14:38:00,88.7,74.0,30.07,SE,138,14.0,19.0,62,0.00,,,0.00,977,Wunderground v.1.15,2013-07-07 18:38:00,
2013-07-07 14:44:00,89.1,74.9,30.07,SE,144,10.0,14.0,63,0.00,,,0.00,1034,Wunderground v.1.15,2013-07-07 18:44:00,
2013-07-07 14:49:00,89.5,74.8,30.07,SE,138,9.0,14.0,62,0.00,,,0.00,1002,Wunderground v.1.15,2013-07-07 18:49:00,
2013-07-07 14:54:00,89.2,74.5,30.07,ESE,120,11.0,14.0,62,0.00,,,0.00,1086,Wunderground v.1.15,2013-07-07 18:54:00,
2013-07-07 14:59:00,89.0,73.8,30.07,ESE,120,11.0,14.0,61,0.00,,,0.00,1035,Wunderground v.1.15,2013-07-07 18:59:00,
2013-07-07 15:05:00,89.1,74.4,30.07,ESE,117,10.0,21.0,62,0.00,,,0.00,1123,Wunderground v.1.15,2013-07-07 19:05:00,
2013-07-07 15:10:00,89.1,73.9,30.07,SE,133,11.0,21.0,61,0.00,,,0.00,1093,Wunderground v.1.15,2013-07-07 19:10:00,
2013-07-07 15:15:00,88.9,74.7,30.07,SE,128,12.0,21.0,63,0.00,,,0.00,710,Wunderground v.1.15,2013-07-07 19:15:00,
2013-07-07 15:21:00,88.5,74.3,30.06,SE,138,12.0,21.0,63,0.00,,,0.00,1000,Wunderground v.1.15,2013-07-07 19:21:00,
2013-07-07 15:26:00,88.7,75.0,30.06,ESE,110,10.0,21.0,64,0.00,,,0.00,1011,Wunderground v.1.15,2013-07-07 19:26:00,
2013-07-07 15:31:00,88.9,74.2,30.06,ESE,117,11.0,21.0,62,0.00,,,0.00,186,Wunderground v.1.15,2013-07-07 19:31:00,
2013-07-07 15:37:00,88.9,73.7,30.06,SE,144,12.0,21.0,61,0.00,,,0.00,907,Wunderground v.1.15,2013-07-07 19:37:00,
2013-07-07 15:42:00,89.1,74.9,30.06,SE,144,11.0,13.0,63,0.00,,,0.00,923,Wunderground v.1.15,2013-07-07 19:42:00,
2013-07-07 15:47:00,89.1,73.9,30.06,SE,128,11.0,14.0,61,0.00,,,0.00,949,Wunderground v.1.15,2013-07-07 19:47:00,
2013-07-07 15:52:00,88.6,73.4,30.06,SE,133,11.0,17.0,61,0.00,,,0.00,860,Wunderground v.1.15,2013-07-07 19:52:00,
2013-07-07 15:58:00,88.7,73.0,30.06,SE,133,11.0,18.0,60,0.00,,,0.00,844,Wunderground v.1.15,2013-07-07 19:58:00,
2013-07-07 16:03:00,88.9,73.7,30.06,SE,145,11.0,21.0,61,0.00,,,0.00,838,Wunderground v.1.15,2013-07-07 20:03:00,
2013-07-07 16:08:00,88.8,73.1,30.05,SSE,148,11.0,21.0,60,0.00,,,0.00,837,Wunderground v.1.15,2013-07-07 20:08:00,
2013-07-07 16:14:00,89.0,74.3,30.05,SE,128,11.0,21.0,62,0.00,,,0.00,826,Wunderground v.1.15,2013-07-07 20:14:00,
2013-07-07 16:19:00,88.8,75.0,30.05,SE,142,10.0,21.0,64,0.00,,,0.00,840,Wunderground v.1.15,2013-07-07 20:19:00,
2013-07-07 16:24:00,88.9,75.1,30.06,East,90,10.0,21.0,64,0.00,,,0.00,798,Wunderground v.1.15,2013-07-07 20:24:00,
2013-07-07 16:30:00,89.0,73.8,30.05,SE,138,10.0,21.0,61,0.00,,,0.00,763,Wunderground v.1.15,2013-07-07 20:30:00,
2013-07-07 16:35:00,88.6,74.4,30.05,ESE,121,10.0,21.0,63,0.00,,,0.00,749,Wunderground v.1.15,2013-07-07 20:35:00,
2013-07-07 16:40:00,88.6,74.9,30.05,SE,144,10.0,12.0,64,0.00,,,0.00,812,Wunderground v.1.15,2013-07-07 20:40:00,
2013-07-07 16:45:00,88.6,75.3,30.05,SE,146,11.0,14.0,65,0.00,,,0.00,752,Wunderground v.1.15,2013-07-07 20:45:00,
2013-07-07 16:51:00,88.7,73.5,30.05,East,98,10.0,10.0,61,0.00,,,0.00,707,Wunderground v.1.15,2013-07-07 20:51:00,
2013-07-07 16:56:00,88.9,75.1,30.05,SE,133,10.0,13.0,64,0.00,,,0.00,728,Wunderground v.1.15,2013-07-07 20:56:00,
2013-07-07 17:01:00,88.5,74.3,30.04,SSE,157,10.0,21.0,63,0.00,,,0.00,689,Wunderground v.1.15,2013-07-07 21:01:00,
2013-07-07 17:07:00,88.7,74.5,30.04,East,94,9.0,21.0,63,0.00,,,0.00,643,Wunderground v.1.15,2013-07-07 21:07:00,
2013-07-07 17:12:00,88.8,73.1,30.04,SE,144,9.0,21.0,60,0.00,,,0.00,643,Wunderground v.1.15,2013-07-07 21:12:00,
2013-07-07 17:17:00,88.8,72.6,30.04,SSE,147,10.0,21.0,59,0.00,,,0.00,640,Wunderground v.1.15,2013-07-07 21:17:00,
2013-07-07 17:23:00,88.6,75.3,30.04,ESE,121,10.0,21.0,65,0.00,,,0.00,628,Wunderground v.1.15,2013-07-07 21:23:00,
2013-07-07 17:28:00,88.4,74.2,30.04,SE,133,10.0,21.0,63,0.00,,,0.00,613,Wunderground v.1.15,2013-07-07 21:28:00,
2013-07-07 17:33:00,88.3,75.9,30.04,SE,128,10.0,21.0,67,0.00,,,0.00,591,Wunderground v.1.15,2013-07-07 21:33:00,
2013-07-07 17:39:00,88.4,75.1,30.04,East,97,8.0,21.0,65,0.00,,,0.00,664,Wunderground v.1.15,2013-07-07 21:39:00,
2013-07-07 17:44:00,88.1,75.8,30.04,SE,138,10.0,12.0,67,0.00,,,0.00,121,Wunderground v.1.15,2013-07-07 21:44:00,
2013-07-07 17:49:00,87.4,75.1,30.04,SE,133,9.0,12.0,67,0.00,,,0.00,550,Wunderground v.1.15,2013-07-07 21:49:00,
2013-07-07 17:55:00,87.5,75.2,30.04,SE,128,8.0,12.0,67,0.00,,,0.00,538,Wunderground v.1.15,2013-07-07 21:55:00,
2013-07-07 18:01:00,87.9,76.0,30.04,SE,144,8.0,19.0,68,0.00,,,0.00,534,Wunderground v.1.15,2013-07-07 22:01:00,
2013-07-07 18:06:00,87.8,75.0,30.04,SE,142,9.0,19.0,66,0.00,,,0.00,482,Wunderground v.1.15,2013-07-07 22:06:00,
2013-07-07 18:11:00,87.4,75.5,30.03,East,96,10.0,17.0,68,0.00,,,0.00,469,Wunderground v.1.15,2013-07-07 22:11:00,
2013-07-07 18:17:00,87.3,75.4,30.03,SSE,150,10.0,17.0,68,0.00,,,0.00,457,Wunderground v.1.15,2013-07-07 22:17:00,
2013-07-07 18:22:00,87.2,74.9,30.03,East,93,10.0,17.0,67,0.00,,,0.00,362,Wunderground v.1.15,2013-07-07 22:22:00,
2013-07-07 18:27:00,87.3,75.9,30.03,SE,128,7.0,17.0,69,0.00,,,0.00,383,Wunderground v.1.15,2013-07-07 22:27:00,
2013-07-07 18:33:00,87.2,75.3,30.03,SE,138,8.0,17.0,68,0.00,,,0.00,373,Wunderground v.1.15,2013-07-07 22:33:00,
2013-07-07 18:38:00,86.9,75.1,30.03,SE,128,11.0,17.0,68,0.00,,,0.00,341,Wunderground v.1.15,2013-07-07 22:38:00,
2013-07-07 18:43:00,86.7,75.7,30.03,SE,144,10.0,12.0,70,0.00,,,0.00,318,Wunderground v.1.15,2013-07-07 22:43:00,
2013-07-07 18:48:00,86.7,75.7,30.03,SSE,158,9.0,12.0,70,0.00,,,0.00,295,Wunderground v.1.15,2013-07-07 22:48:00,
2013-07-07 18:54:00,86.8,75.4,30.04,SE,128,9.0,9.0,69,0.00,,,0.00,271,Wunderground v.1.15,2013-07-07 22:54:00,
2013-07-07 18:59:00,86.7,75.7,30.04,SE,133,9.0,11.0,70,0.00,,,0.00,255,Wunderground v.1.15,2013-07-07 22:59:00,
2013-07-07 19:04:00,86.5,75.5,30.04,SE,128,9.0,20.0,70,0.00,,,0.00,241,Wunderground v.1.15,2013-07-07 23:04:00,
2013-07-07 19:10:00,86.2,75.3,30.04,SE,128,10.0,20.0,70,0.00,,,0.00,213,Wunderground v.1.15,2013-07-07 23:10:00,
2013-07-07 19:15:00,86.1,75.6,30.04,SE,138,9.0,20.0,71,0.00,,,0.00,195,Wunderground v.1.15,2013-07-07 23:15:00,
2013-07-07 19:20:00,86.0,75.1,30.04,ESE,122,7.0,20.0,70,0.00,,,0.00,167,Wunderground v.1.15,2013-07-07 23:20:00,
2013-07-07 19:25:00,85.7,74.8,30.04,SSE,152,8.0,20.0,70,0.00,,,0.00,88,Wunderground v.1.15,2013-07-07 23:25:00,
2013-07-07 19:31:00,85.3,74.8,30.04,ESE,118,9.0,20.0,71,0.00,,,0.00,127,Wunderground v.1.15,2013-07-07 23:31:00,
2013-07-07 19:36:00,85.1,74.6,30.05,ESE,108,9.0,20.0,71,0.00,,,0.00,104,Wunderground v.1.15,2013-07-07 23:36:00,
2013-07-07 19:41:00,84.9,74.9,30.05,ESE,115,10.0,10.0,72,0.00,,,0.00,90,Wunderground v.1.15,2013-07-07 23:41:00,
2013-07-07 19:47:00,84.6,74.6,30.05,ESE,114,9.0,13.0,72,0.00,,,0.00,70,Wunderground v.1.15,2013-07-07 23:47:00,
2013-07-07 19:52:00,84.4,74.4,30.05,SE,138,6.0,7.0,72,0.00,,,0.00,54,Wunderground v.1.15,2013-07-07 23:52:00,
2013-07-07 19:57:00,84.2,74.6,30.06,ESE,118,6.0,10.0,73,0.00,,,0.00,23,Wunderground v.1.15,2013-07-07 23:57:00,
2013-07-07 20:03:00,83.8,74.2,30.06,SE,138,7.0,17.0,73,0.00,,,0.00,12,Wunderground v.1.15,2013-07-08 00:03:00,
2013-07-07 20:08:00,83.6,74.4,30.06,East,96,7.0,17.0,74,0.00,,,0.00,9,Wunderground v.1.15,2013-07-08 00:08:00,
2013-07-07 20:13:00,83.3,74.5,30.06,ESE,113,6.0,17.0,75,0.00,,,0.00,7,Wunderground v.1.15,2013-07-08 00:13:00,
2013-07-07 20:19:00,83.1,74.4,30.06,ENE,76,5.0,17.0,75,0.00,,,0.00,5,Wunderground v.1.15,2013-07-08 00:19:00,
2013-07-07 20:24:00,82.9,74.6,30.06,East,100,5.0,17.0,76,0.00,,,0.00,0,Wunderground v.1.15,2013-07-08 00:24:00,
2013-07-07 20:29:00,82.8,74.8,30.06,ESE,113,6.0,17.0,77,0.00,,,0.00,0,Wunderground v.1.15,2013-07-08 00:29:00,
2013-07-07 20:34:00,82.6,74.7,30.06,ESE,119,6.0,17.0,77,0.00,,,0.00,0,Wunderground v.1.15,2013-07-08 00:34:00,
2013-07-07 20:40:00,82.5,74.9,30.07,ESE,122,6.0,6.0,78,0.00,,,0.00,0,Wunderground v.1.15,2013-07-08 00:40:00,
2013-07-07 20:45:00,82.3,74.7,30.07,ESE,113,6.0,7.0,78,0.00,,,0.00,0,Wunderground v.1.15,2013-07-08 00:45:00,
2013-07-07 20:50:00,82.1,74.9,30.07,ESE,113,5.0,5.0,79,0.00,,,0.00,0,Wunderground v.1.15,2013-07-08 00:50:00,
2013-07-07 20:56:00,82.0,75.2,30.07,ESE,117,5.0,7.0,80,0.00,,,0.00,0,Wunderground v.1.15,2013-07-08 00:56:00,
2013-07-07 21:01:00,81.8,75.0,30.07,ESE,112,5.0,8.0,80,0.00,,,0.00,0,Wunderground v.1.15,2013-07-08 01:01:00,
2013-07-07 21:06:00,81.6,74.8,30.07,ESE,115,5.0,13.0,80,0.00,,,0.00,0,Wunderground v.1.15,2013-07-08 01:06:00,
2013-07-07 21:12:00,81.5,75.1,30.07,SE,128,5.0,13.0,81,0.00,,,0.00,0,Wunderground v.1.15,2013-07-08 01:12:00,
2013-07-07 21:17:00,81.4,75.4,30.08,ESE,114,6.0,13.0,82,0.00,,,0.00,0,Wunderground v.1.15,2013-07-08 01:17:00,
2013-07-07 21:22:00,81.3,75.3,30.08,SE,128,5.0,13.0,82,0.00,,,0.00,0,Wunderground v.1.15,2013-07-08 01:22:00,
2013-07-07 21:27:00,81.2,75.2,30.08,ESE,115,5.0,13.0,82,0.00,,,0.00,0,Wunderground v.1.15,2013-07-08 01:27:00,
2013-07-07 21:33:00,81.1,75.4,30.09,ESE,102,5.0,13.0,83,0.00,,,0.00,0,Wunderground v.1.15,2013-07-08 01:33:00,
2013-07-07 21:38:00,81.1,75.4,30.09,ESE,106,4.0,13.0,83,0.00,,,0.00,0,Wunderground v.1.15,2013-07-08 01:38:00,
2013-07-07 21:43:00,81.0,75.3,30.09,ESE,106,3.0,5.0,83,0.00,,,0.00,0,Wunderground v.1.15,2013-07-08 01:43:00,
2013-07-07 21:49:00,80.9,75.2,30.10,East,98,3.0,8.0,83,0.00,,,0.00,0,Wunderground v.1.15,2013-07-08 01:49:00,
2013-07-07 21:54:00,80.8,75.5,30.10,East,94,4.0,7.0,84,0.00,,,0.00,0,Wunderground v.1.15,2013-07-08 01:54:00,
2013-07-07 21:59:00,80.7,75.4,30.10,East,94,3.0,7.0,84,0.00,,,0.00,0,Wunderground v.1.15,2013-07-08 01:59:00,
2013-07-07 22:05:00,80.6,75.3,30.10,East,94,2.0,12.0,84,0.00,,,0.00,0,Wunderground v.1.15,2013-07-08 02:05:00,
2013-07-07 22:10:00,80.5,75.2,30.10,East,100,2.0,12.0,84,0.00,,,0.00,0,Wunderground v.1.15,2013-07-08 02:10:00,
2013-07-07 22:15:00,80.4,75.5,30.11,East,100,3.0,12.0,85,0.00,,,0.00,0,Wunderground v.1.15,2013-07-08 02:15:00,
2013-07-07 22:20:00,80.3,75.4,30.11,East,100,1.0,12.0,85,0.00,,,0.00,0,Wunderground v.1.15,2013-07-08 02:20:00,
2013-07-07 22:26:00,80.2,75.3,30.11,East,100,1.0,12.0,85,0.00,,,0.00,0,Wunderground v.1.15,2013-07-08 02:26:00,
2013-07-07 22:31:00,80.1,75.2,30.11,East,100,2.0,12.0,85,0.00,,,0.00,0,Wunderground v.1.15,2013-07-08 02:31:00,
2013-07-07 22:36:00,80.0,75.4,30.11,East,100,2.0,12.0,86,0.00,,,0.00,0,Wunderground v.1.15,2013-07-08 02:36:00,
2013-07-07 22:42:00,79.9,75.3,30.11,East,100,2.0,2.0,86,0.00,,,0.00,0,Wunderground v.1.15,2013-07-08 02:42:00,
2013-07-07 22:47:00,79.8,75.2,30.12,East,100,2.0,2.0,86,0.00,,,0.00,0,Wunderground v.1.15,2013-07-08 02:47:00,
2013-07-07 22:52:00,79.7,75.1,30.12,East,100,1.0,2.0,86,0.00,,,0.00,0,Wunderground v.1.15,2013-07-08 02:52:00,
2013-07-07 22:58:00,79.6,75.0,30.12,East,100,1.0,2.0,86,0.00,,,0.00,0,Wunderground v.1.15,2013-07-08 02:58:00,
2013-07-07 23:03:00,79.4,75.2,30.12,East,100,1.0,9.0,87,0.00,,,0.00,0,Wunderground v.1.15,2013-07-08 03:03:00,
2013-07-07 23:08:00,79.3,75.1,30.12,East,100,1.0,9.0,87,0.00,,,0.00,0,Wunderground v.1.15,2013-07-08 03:08:00,
2013-07-07 23:13:00,79.2,75.0,30.12,East,100,1.0,9.0,87,0.00,,,0.00,0,Wunderground v.1.15,2013-07-08 03:13:00,
2013-07-07 23:19:00,79.2,75.0,30.12,East,100,1.0,9.0,87,0.00,,,0.00,0,Wunderground v.1.15,2013-07-08 03:19:00,
2013-07-07 23:24:00,79.2,75.0,30.12,East,100,1.0,9.0,87,0.00,,,0.00,0,Wunderground v.1.15,2013-07-08 03:24:00,
2013-07-07 23:29:00,79.1,74.9,30.13,East,100,1.0,9.0,87,0.00,,,0.00,0,Wunderground v.1.15,2013-07-08 03:29:00,
2013-07-07 23:35:00,79.0,75.1,30.13,East,100,1.0,9.0,88,0.00,,,0.00,0,Wunderground v.1.15,2013-07-08 03:35:00,
2013-07-07 23:40:00,79.0,75.1,30.12,East,100,0.0,0.0,88,0.00,,,0.00,0,Wunderground v.1.15,2013-07-08 03:40:00,
2013-07-07 23:45:00,78.9,75.0,30.12,East,100,1.0,2.0,88,0.00,,,0.00,0,Wunderground v.1.15,2013-07-08 03:45:00,
2013-07-07 23:50:00,78.8,74.9,30.12,East,100,1.0,1.0,88,0.00,,,0.00,0,Wunderground v.1.15,2013-07-08 03:50:00,
2013-07-07 23:56:00,78.7,74.8,30.12,East,100,0.0,2.0,88,0.00,,,0.00,0,Wunderground v.1.15,2013-07-08 03:56:00,